owner,sensor,date,latitude,longitude,air_temperature,qcFlag 
ADCP,ioos:station:wmo:42376:1,2012-01-01T00:00:00Z,29.1080,-87.9440,19.8,11111222 
ADCP,ioos:station:wmo:42376:1,2012-01-01T00:40:00Z,29.1080,-87.9440,19.8,11111222 
ADCP,ioos:station:wmo:42376:1,2012-01-01T01:00:00Z,29.1080,-87.9440,20.0,11111222 
ADCP,ioos:station:wmo:42376:1,2012-01-01T01:20:00Z,29.1080,-87.9440,20.0,11111222 
ADCP,ioos:station:wmo:42376:1,2012-01-01T01:40:00Z,29.1080,-87.9440,20.2,11111222 
ADCP,ioos:station:wmo:42376:1,2012-01-01T02:00:00Z,29.1080,-87.9440,20.5,11111222 
ADCP,ioos:station:wmo:42376:1,2012-01-01T02:20:00Z,29.1080,-87.9440,20.5,11111222 
ADCP,ioos:station:wmo:42376:1,2012-01-01T02:40:00Z,29.1080,-87.9440,20.6,11111222 
ADCP,ioos:station:wmo:42376:1,2012-01-01T03:00:00Z,29.1080,-87.9440,20.9,11111222 
ADCP,ioos:station:wmo:42376:1,2012-01-01T03:20:00Z,29.1080,-87.9440,20.9,11111222 
ADCP,ioos:station:wmo:42376:1,2012-01-01T04:00:00Z,29.1080,-87.9440,21.6,11111222 
ADCP,ioos:station:wmo:42376:1,2012-01-01T04:20:00Z,29.1080,-87.9440,21.6,11111222 
ADCP,ioos:station:wmo:42376:1,2012-01-01T04:40:00Z,29.1080,-87.9440,21.7,11111222 
ADCP,ioos:station:wmo:42376:1,2012-01-01T05:00:00Z,29.1080,-87.9440,21.7,11111222 
ADCP,ioos:station:wmo:42376:1,2012-01-01T05:20:00Z,29.1080,-87.9440,21.7,11111222 
ADCP,ioos:station:wmo:42376:1,2012-01-01T05:40:00Z,29.1080,-87.9440,21.7,11111222 
ADCP,ioos:station:wmo:42376:1,2012-01-01T06:00:00Z,29.1080,-87.9440,21.9,11111222 
ADCP,ioos:station:wmo:42376:1,2012-01-01T06:20:00Z,29.1080,-87.9440,21.9,11111222 
ADCP,ioos:station:wmo:42376:1,2012-01-01T06:40:00Z,29.1080,-87.9440,21.9,11111222 
ADCP,ioos:station:wmo:42376:1,2012-01-01T07:00:00Z,29.1080,-87.9440,21.7,11111222 
ADCP,ioos:station:wmo:42376:1,2012-01-01T07:20:00Z,29.1080,-87.9440,21.7,11111222 
ADCP,ioos:station:wmo:42376:1,2012-01-01T08:00:00Z,29.1080,-87.9440,21.2,11111222 
ADCP,ioos:station:wmo:42376:1,2012-01-01T08:20:00Z,29.1080,-87.9440,21.2,11111222 
ADCP,ioos:station:wmo:42376:1,2012-01-01T09:00:00Z,29.1080,-87.9440,21.3,11111222 
ADCP,ioos:station:wmo:42376:1,2012-01-01T09:20:00Z,29.1080,-87.9440,21.3,11111222 
ADCP,ioos:station:wmo:42376:1,2012-01-01T10:00:00Z,29.1080,-87.9440,21.2,11111222 
ADCP,ioos:station:wmo:42376:1,2012-01-01T10:20:00Z,29.1080,-87.9440,21.2,11111222 
ADCP,ioos:station:wmo:42376:1,2012-01-01T10:40:00Z,29.1080,-87.9440,21.2,11111222 
ADCP,ioos:station:wmo:42376:1,2012-01-01T11:00:00Z,29.1080,-87.9440,21.3,11111222 
ADCP,ioos:station:wmo:42376:1,2012-01-01T11:20:00Z,29.1080,-87.9440,21.3,11111222 
ADCP,ioos:station:wmo:42376:1,2012-01-01T11:40:00Z,29.1080,-87.9440,21.5,11111222 
ADCP,ioos:station:wmo:42376:1,2012-01-01T12:00:00Z,29.1080,-87.9440,21.6,11111222 
ADCP,ioos:station:wmo:42376:1,2012-01-01T12:20:00Z,29.1080,-87.9440,21.6,11111222 
ADCP,ioos:station:wmo:42376:1,2012-01-01T12:40:00Z,29.1080,-87.9440,21.7,11111222 
ADCP,ioos:station:wmo:42376:1,2012-01-01T13:00:00Z,29.1080,-87.9440,21.9,11111222 
ADCP,ioos:station:wmo:42376:1,2012-01-01T13:20:00Z,29.1080,-87.9440,21.9,11111222 
ADCP,ioos:station:wmo:42376:1,2012-01-01T13:40:00Z,29.1080,-87.9440,21.9,11111222 
ADCP,ioos:station:wmo:42376:1,2012-01-01T14:00:00Z,29.1080,-87.9440,22.1,11111222 
ADCP,ioos:station:wmo:42376:1,2012-01-01T14:20:00Z,29.1080,-87.9440,22.1,11111222 
ADCP,ioos:station:wmo:42376:1,2012-01-01T15:00:00Z,29.1080,-87.9440,22.3,11111222 
ADCP,ioos:station:wmo:42376:1,2012-01-01T15:20:00Z,29.1080,-87.9440,22.3,11111222 
ADCP,ioos:station:wmo:42376:1,2012-01-01T15:40:00Z,29.1080,-87.9440,22.4,11111222 
ADCP,ioos:station:wmo:42376:1,2012-01-01T16:00:00Z,29.1080,-87.9440,22.4,11111222 
ADCP,ioos:station:wmo:42376:1,2012-01-01T16:20:00Z,29.1080,-87.9440,22.4,11111222 
ADCP,ioos:station:wmo:42376:1,2012-01-01T16:40:00Z,29.1080,-87.9440,22.3,11111222 
ADCP,ioos:station:wmo:42376:1,2012-01-01T17:00:00Z,29.1080,-87.9440,22.3,11111222 
ADCP,ioos:station:wmo:42376:1,2012-01-01T17:20:00Z,29.1080,-87.9440,22.3,11111222 
ADCP,ioos:station:wmo:42376:1,2012-01-01T17:40:00Z,29.1080,-87.9440,22.3,11111222 
ADCP,ioos:station:wmo:42376:1,2012-01-01T18:00:00Z,29.1080,-87.9440,22.2,11111222 
ADCP,ioos:station:wmo:42376:1,2012-01-01T18:20:00Z,29.1080,-87.9440,22.2,11111222 
ADCP,ioos:station:wmo:42376:1,2012-01-01T19:00:00Z,29.1080,-87.9440,22.1,11111222 
ADCP,ioos:station:wmo:42376:1,2012-01-01T19:20:00Z,29.1080,-87.9440,22.1,11111222 
ADCP,ioos:station:wmo:42376:1,2012-01-01T19:40:00Z,29.1080,-87.9440,22.1,11111222 
ADCP,ioos:station:wmo:42376:1,2012-01-01T20:00:00Z,29.1080,-87.9440,22.1,11111222 
ADCP,ioos:station:wmo:42376:1,2012-01-01T20:20:00Z,29.1080,-87.9440,22.1,11111222 
ADCP,ioos:station:wmo:42376:1,2012-01-01T20:40:00Z,29.1080,-87.9440,22.1,11111222 
ADCP,ioos:station:wmo:42376:1,2012-01-01T21:00:00Z,29.1080,-87.9440,22.1,11111222 
ADCP,ioos:station:wmo:42376:1,2012-01-01T21:20:00Z,29.1080,-87.9440,22.1,11111222 
ADCP,ioos:station:wmo:42376:1,2012-01-01T21:40:00Z,29.1080,-87.9440,21.9,11111222 
ADCP,ioos:station:wmo:42376:1,2012-01-01T22:00:00Z,29.1080,-87.9440,21.6,11111222 
ADCP,ioos:station:wmo:42376:1,2012-01-01T22:20:00Z,29.1080,-87.9440,21.6,11111222 
ADCP,ioos:station:wmo:42376:1,2012-01-01T22:40:00Z,29.1080,-87.9440,21.4,11111222 
ADCP,ioos:station:wmo:42376:1,2012-01-01T23:00:00Z,29.1080,-87.9440,21.0,11111222 
ADCP,ioos:station:wmo:42376:1,2012-01-01T23:20:00Z,29.1080,-87.9440,21.0,11111222 
ADCP,ioos:station:wmo:42376:1,2012-01-01T23:40:00Z,29.1080,-87.9440,20.9,11111222 
ADCP,ioos:station:wmo:42376:1,2012-01-02T00:00:00Z,29.1080,-87.9440,21.3,11111222 
ADCP,ioos:station:wmo:42376:1,2012-01-02T00:20:00Z,29.1080,-87.9440,21.3,11111222 
ADCP,ioos:station:wmo:42376:1,2012-01-02T00:40:00Z,29.1080,-87.9440,21.1,11111222 
ADCP,ioos:station:wmo:42376:1,2012-01-02T01:00:00Z,29.1080,-87.9440,20.7,11111222 
ADCP,ioos:station:wmo:42376:1,2012-01-02T01:20:00Z,29.1080,-87.9440,20.7,11111222 
ADCP,ioos:station:wmo:42376:1,2012-01-02T02:00:00Z,29.1080,-87.9440,19.8,11111222 
ADCP,ioos:station:wmo:42376:1,2012-01-02T02:20:00Z,29.1080,-87.9440,19.8,11111222 
ADCP,ioos:station:wmo:42376:1,2012-01-02T02:40:00Z,29.1080,-87.9440,19.1,11111222 
ADCP,ioos:station:wmo:42376:1,2012-01-02T03:00:00Z,29.1080,-87.9440,18.5,11111222 
ADCP,ioos:station:wmo:42376:1,2012-01-02T03:20:00Z,29.1080,-87.9440,18.5,11111222 
ADCP,ioos:station:wmo:42376:1,2012-01-02T03:40:00Z,29.1080,-87.9440,18.1,11111222 
ADCP,ioos:station:wmo:42376:1,2012-01-02T04:00:00Z,29.1080,-87.9440,17.6,11111222 
ADCP,ioos:station:wmo:42376:1,2012-01-02T04:20:00Z,29.1080,-87.9440,17.6,11111222 
ADCP,ioos:station:wmo:42376:1,2012-01-02T04:40:00Z,29.1080,-87.9440,17.0,11111222 
ADCP,ioos:station:wmo:42376:1,2012-01-02T06:40:00Z,29.1080,-87.9440,15.2,11111222 
ADCP,ioos:station:wmo:42376:1,2012-01-02T07:00:00Z,29.1080,-87.9440,14.9,11111222 
ADCP,ioos:station:wmo:42376:1,2012-01-02T07:20:00Z,29.1080,-87.9440,14.9,11111222 
ADCP,ioos:station:wmo:42376:1,2012-01-02T08:00:00Z,29.1080,-87.9440,14.2,11111222 
ADCP,ioos:station:wmo:42376:1,2012-01-02T08:20:00Z,29.1080,-87.9440,14.2,11111222 
ADCP,ioos:station:wmo:42376:1,2012-01-02T08:40:00Z,29.1080,-87.9440,13.9,11111222 
ADCP,ioos:station:wmo:42376:1,2012-01-02T09:20:00Z,29.1080,-87.9440,13.6,11111222 
ADCP,ioos:station:wmo:42376:1,2012-01-02T10:00:00Z,29.1080,-87.9440,13.4,11111222 
ADCP,ioos:station:wmo:42376:1,2012-01-02T11:00:00Z,29.1080,-87.9440,13.2,11111222 
ADCP,ioos:station:wmo:42376:1,2012-01-02T11:20:00Z,29.1080,-87.9440,13.2,11111222 
ADCP,ioos:station:wmo:42376:1,2012-01-02T11:40:00Z,29.1080,-87.9440,13.0,11111222 
ADCP,ioos:station:wmo:42376:1,2012-01-02T12:00:00Z,29.1080,-87.9440,12.7,11111222 
ADCP,ioos:station:wmo:42376:1,2012-01-02T12:20:00Z,29.1080,-87.9440,12.7,11111222 
ADCP,ioos:station:wmo:42376:1,2012-01-02T12:40:00Z,29.1080,-87.9440,12.6,11111222 
ADCP,ioos:station:wmo:42376:1,2012-01-02T13:00:00Z,29.1080,-87.9440,12.5,11111222 
ADCP,ioos:station:wmo:42376:1,2012-01-02T13:20:00Z,29.1080,-87.9440,12.5,11111222 
ADCP,ioos:station:wmo:42376:1,2012-01-02T13:40:00Z,29.1080,-87.9440,12.3,11111222 
ADCP,ioos:station:wmo:42376:1,2012-01-02T14:00:00Z,29.1080,-87.9440,12.1,11111222 
ADCP,ioos:station:wmo:42376:1,2012-01-02T14:20:00Z,29.1080,-87.9440,12.1,11111222 
ADCP,ioos:station:wmo:42376:1,2012-01-02T14:40:00Z,29.1080,-87.9440,11.8,11111222 
ADCP,ioos:station:wmo:42376:1,2012-01-02T15:00:00Z,29.1080,-87.9440,11.5,11111222 
ADCP,ioos:station:wmo:42376:1,2012-01-02T15:20:00Z,29.1080,-87.9440,11.5,11111222 
ADCP,ioos:station:wmo:42376:1,2012-01-02T15:40:00Z,29.1080,-87.9440,11.1,11111222 
ADCP,ioos:station:wmo:42376:1,2012-01-02T16:00:00Z,29.1080,-87.9440,11.0,11111222 
ADCP,ioos:station:wmo:42376:1,2012-01-02T16:20:00Z,29.1080,-87.9440,11.0,11111222 
ADCP,ioos:station:wmo:42376:1,2012-01-02T16:40:00Z,29.1080,-87.9440,11.0,11111222 
ADCP,ioos:station:wmo:42376:1,2012-01-02T17:00:00Z,29.1080,-87.9440,10.9,11111222 
ADCP,ioos:station:wmo:42376:1,2012-01-02T17:20:00Z,29.1080,-87.9440,10.9,11111222 
ADCP,ioos:station:wmo:42376:1,2012-01-02T17:40:00Z,29.1080,-87.9440,11.0,11111222 
ADCP,ioos:station:wmo:42376:1,2012-01-02T18:00:00Z,29.1080,-87.9440,10.9,11111222 
ADCP,ioos:station:wmo:42376:1,2012-01-02T18:20:00Z,29.1080,-87.9440,10.9,11111222 
ADCP,ioos:station:wmo:42376:1,2012-01-02T19:00:00Z,29.1080,-87.9440,11.0,11111222 
ADCP,ioos:station:wmo:42376:1,2012-01-02T19:20:00Z,29.1080,-87.9440,11.0,11111222 
ADCP,ioos:station:wmo:42376:1,2012-01-02T19:40:00Z,29.1080,-87.9440,11.4,11111222 
ADCP,ioos:station:wmo:42376:1,2012-01-02T20:00:00Z,29.1080,-87.9440,11.8,11111222 
ADCP,ioos:station:wmo:42376:1,2012-01-02T20:20:00Z,29.1080,-87.9440,11.8,11111222 
ADCP,ioos:station:wmo:42376:1,2012-01-02T20:40:00Z,29.1080,-87.9440,12.1,11111222 
ADCP,ioos:station:wmo:42376:1,2012-01-02T21:00:00Z,29.1080,-87.9440,12.4,11111222 
ADCP,ioos:station:wmo:42376:1,2012-01-02T21:20:00Z,29.1080,-87.9440,12.4,11111222 
ADCP,ioos:station:wmo:42376:1,2012-01-02T21:40:00Z,29.1080,-87.9440,12.7,11111222 
ADCP,ioos:station:wmo:42376:1,2012-01-02T22:00:00Z,29.1080,-87.9440,13.1,11111222 
ADCP,ioos:station:wmo:42376:1,2012-01-02T22:20:00Z,29.1080,-87.9440,13.1,11111222 
ADCP,ioos:station:wmo:42376:1,2012-01-02T23:00:00Z,29.1080,-87.9440,13.6,11111222 
ADCP,ioos:station:wmo:42376:1,2012-01-02T23:20:00Z,29.1080,-87.9440,13.6,11111222 
ADCP,ioos:station:wmo:42376:1,2012-01-02T23:40:00Z,29.1080,-87.9440,13.9,11111222 
ADCP,ioos:station:wmo:42376:1,2012-01-03T00:00:00Z,29.1080,-87.9440,14.2,11111222 
ADCP,ioos:station:wmo:42376:1,2012-01-03T00:20:00Z,29.1080,-87.9440,14.2,11111222 
ADCP,ioos:station:wmo:42376:1,2012-01-03T01:00:00Z,29.1080,-87.9440,14.8,11111222 
ADCP,ioos:station:wmo:42376:1,2012-01-03T01:20:00Z,29.1080,-87.9440,14.8,11111222 
ADCP,ioos:station:wmo:42376:1,2012-01-03T02:00:00Z,29.1080,-87.9440,15.2,11111222 
ADCP,ioos:station:wmo:42376:1,2012-01-03T02:20:00Z,29.1080,-87.9440,15.2,11111222 
ADCP,ioos:station:wmo:42376:1,2012-01-03T02:40:00Z,29.1080,-87.9440,15.2,11111222 
ADCP,ioos:station:wmo:42376:1,2012-01-03T03:20:00Z,29.1080,-87.9440,15.1,11111222 
ADCP,ioos:station:wmo:42376:1,2012-01-03T03:40:00Z,29.1080,-87.9440,14.7,11111222 
ADCP,ioos:station:wmo:42376:1,2012-01-03T04:00:00Z,29.1080,-87.9440,14.1,11111222 
ADCP,ioos:station:wmo:42376:1,2012-01-03T04:20:00Z,29.1080,-87.9440,14.1,11111222 
ADCP,ioos:station:wmo:42376:1,2012-01-03T05:00:00Z,29.1080,-87.9440,12.4,11111222 
ADCP,ioos:station:wmo:42376:1,2012-01-03T05:20:00Z,29.1080,-87.9440,12.4,11111222 
ADCP,ioos:station:wmo:42376:1,2012-01-03T05:40:00Z,29.1080,-87.9440,12.1,11111222 
ADCP,ioos:station:wmo:42376:1,2012-01-03T06:00:00Z,29.1080,-87.9440,12.0,11111222 
ADCP,ioos:station:wmo:42376:1,2012-01-03T06:20:00Z,29.1080,-87.9440,12.0,11111222 
ADCP,ioos:station:wmo:42376:1,2012-01-03T06:40:00Z,29.1080,-87.9440,11.5,11111222 
ADCP,ioos:station:wmo:42376:1,2012-01-03T07:00:00Z,29.1080,-87.9440,11.0,11111222 
ADCP,ioos:station:wmo:42376:1,2012-01-03T07:20:00Z,29.1080,-87.9440,11.0,11111222 
ADCP,ioos:station:wmo:42376:1,2012-01-03T08:00:00Z,29.1080,-87.9440,10.2,11111222 
ADCP,ioos:station:wmo:42376:1,2012-01-03T08:20:00Z,29.1080,-87.9440,10.2,11111222 
ADCP,ioos:station:wmo:42376:1,2012-01-03T09:00:00Z,29.1080,-87.9440,9.6,11111222 
ADCP,ioos:station:wmo:42376:1,2012-01-03T09:20:00Z,29.1080,-87.9440,9.6,11111222 
ADCP,ioos:station:wmo:42376:1,2012-01-03T09:40:00Z,29.1080,-87.9440,9.2,11111222 
ADCP,ioos:station:wmo:42376:1,2012-01-03T10:00:00Z,29.1080,-87.9440,8.8,11111222 
ADCP,ioos:station:wmo:42376:1,2012-01-03T10:20:00Z,29.1080,-87.9440,8.8,11111222 
ADCP,ioos:station:wmo:42376:1,2012-01-03T12:00:00Z,29.1080,-87.9440,7.7,11111222 
ADCP,ioos:station:wmo:42376:1,2012-01-03T12:20:00Z,29.1080,-87.9440,7.7,11111222 
ADCP,ioos:station:wmo:42376:1,2012-01-03T13:20:00Z,29.1080,-87.9440,7.5,11111222 
ADCP,ioos:station:wmo:42376:1,2012-01-03T14:00:00Z,29.1080,-87.9440,7.3,11111222 
ADCP,ioos:station:wmo:42376:1,2012-01-03T14:20:00Z,29.1080,-87.9440,7.3,11111222 
ADCP,ioos:station:wmo:42376:1,2012-01-03T14:40:00Z,29.1080,-87.9440,7.1,11111222 
ADCP,ioos:station:wmo:42376:1,2012-01-03T15:00:00Z,29.1080,-87.9440,7.0,11111222 
ADCP,ioos:station:wmo:42376:1,2012-01-03T15:20:00Z,29.1080,-87.9440,7.0,11111222 
ADCP,ioos:station:wmo:42376:1,2012-01-03T15:40:00Z,29.1080,-87.9440,6.9,11111222 
ADCP,ioos:station:wmo:42376:1,2012-01-03T16:00:00Z,29.1080,-87.9440,6.7,11111222 
ADCP,ioos:station:wmo:42376:1,2012-01-03T16:20:00Z,29.1080,-87.9440,6.7,11111222 
ADCP,ioos:station:wmo:42376:1,2012-01-03T17:20:00Z,29.1080,-87.9440,6.7,11111222 
ADCP,ioos:station:wmo:42376:1,2012-01-03T17:40:00Z,29.1080,-87.9440,6.7,11111222 
ADCP,ioos:station:wmo:42376:1,2012-01-03T18:00:00Z,29.1080,-87.9440,6.7,11111222 
ADCP,ioos:station:wmo:42376:1,2012-01-03T18:20:00Z,29.1080,-87.9440,6.7,11111222 
ADCP,ioos:station:wmo:42376:1,2012-01-03T18:40:00Z,29.1080,-87.9440,6.7,11111222 
ADCP,ioos:station:wmo:42376:1,2012-01-03T19:00:00Z,29.1080,-87.9440,6.7,11111222 
ADCP,ioos:station:wmo:42376:1,2012-01-03T19:20:00Z,29.1080,-87.9440,6.7,11111222 
ADCP,ioos:station:wmo:42376:1,2012-01-03T20:00:00Z,29.1080,-87.9440,6.7,11111222 
ADCP,ioos:station:wmo:42376:1,2012-01-03T20:20:00Z,29.1080,-87.9440,6.7,11111222 
ADCP,ioos:station:wmo:42376:1,2012-01-03T21:00:00Z,29.1080,-87.9440,6.7,11111222 
ADCP,ioos:station:wmo:42376:1,2012-01-03T21:20:00Z,29.1080,-87.9440,6.7,11111222 
ADCP,ioos:station:wmo:42376:1,2012-01-03T21:40:00Z,29.1080,-87.9440,8.1,11111222 
ADCP,ioos:station:wmo:42376:1,2012-01-03T22:00:00Z,29.1080,-87.9440,8.5,11111222 
ADCP,ioos:station:wmo:42376:1,2012-01-03T22:20:00Z,29.1080,-87.9440,8.5,11111222 
ADCP,ioos:station:wmo:42376:1,2012-01-03T23:20:00Z,29.1080,-87.9440,8.9,11111222 
ADCP,ioos:station:wmo:42376:1,2012-01-04T00:00:00Z,29.1080,-87.9440,9.3,11111222 
ADCP,ioos:station:wmo:42376:1,2012-01-04T00:20:00Z,29.1080,-87.9440,9.3,11111222 
ADCP,ioos:station:wmo:42376:1,2012-01-04T00:40:00Z,29.1080,-87.9440,9.4,11111222 
ADCP,ioos:station:wmo:42376:1,2012-01-04T01:00:00Z,29.1080,-87.9440,9.7,11111222 
ADCP,ioos:station:wmo:42376:1,2012-01-04T01:20:00Z,29.1080,-87.9440,9.7,11111222 
ADCP,ioos:station:wmo:42376:1,2012-01-04T02:00:00Z,29.1080,-87.9440,9.9,11111222 
ADCP,ioos:station:wmo:42376:1,2012-01-04T02:20:00Z,29.1080,-87.9440,9.9,11111222 
ADCP,ioos:station:wmo:42376:1,2012-01-04T03:00:00Z,29.1080,-87.9440,10.2,11111222 
ADCP,ioos:station:wmo:42376:1,2012-01-04T03:20:00Z,29.1080,-87.9440,10.2,11111222 
ADCP,ioos:station:wmo:42376:1,2012-01-04T04:00:00Z,29.1080,-87.9440,10.4,11111222 
ADCP,ioos:station:wmo:42376:1,2012-01-04T04:20:00Z,29.1080,-87.9440,10.4,11111222 
ADCP,ioos:station:wmo:42376:1,2012-01-04T04:40:00Z,29.1080,-87.9440,10.5,11111222 
ADCP,ioos:station:wmo:42376:1,2012-01-04T05:00:00Z,29.1080,-87.9440,10.7,11111222 
ADCP,ioos:station:wmo:42376:1,2012-01-04T05:20:00Z,29.1080,-87.9440,10.7,11111222 
ADCP,ioos:station:wmo:42376:1,2012-01-04T05:40:00Z,29.1080,-87.9440,10.9,11111222 
ADCP,ioos:station:wmo:42376:1,2012-01-04T06:00:00Z,29.1080,-87.9440,11.2,11111222 
ADCP,ioos:station:wmo:42376:1,2012-01-04T06:20:00Z,29.1080,-87.9440,11.2,11111222 
ADCP,ioos:station:wmo:42376:1,2012-01-04T07:00:00Z,29.1080,-87.9440,11.6,11111222 
ADCP,ioos:station:wmo:42376:1,2012-01-04T07:20:00Z,29.1080,-87.9440,11.6,11111222 
ADCP,ioos:station:wmo:42376:1,2012-01-04T07:40:00Z,29.1080,-87.9440,11.9,11111222 
ADCP,ioos:station:wmo:42376:1,2012-01-04T08:00:00Z,29.1080,-87.9440,12.2,11111222 
ADCP,ioos:station:wmo:42376:1,2012-01-04T08:20:00Z,29.1080,-87.9440,12.2,11111222 
ADCP,ioos:station:wmo:42376:1,2012-01-04T08:40:00Z,29.1080,-87.9440,12.0,11111222 
ADCP,ioos:station:wmo:42376:1,2012-01-04T09:00:00Z,29.1080,-87.9440,11.6,11111222 
ADCP,ioos:station:wmo:42376:1,2012-01-04T09:20:00Z,29.1080,-87.9440,11.6,11111222 
ADCP,ioos:station:wmo:42376:1,2012-01-04T10:00:00Z,29.1080,-87.9440,12.3,11111222 
ADCP,ioos:station:wmo:42376:1,2012-01-04T10:20:00Z,29.1080,-87.9440,12.3,11111222 
ADCP,ioos:station:wmo:42376:1,2012-01-04T11:00:00Z,29.1080,-87.9440,12.5,11111222 
ADCP,ioos:station:wmo:42376:1,2012-01-04T11:20:00Z,29.1080,-87.9440,12.5,11111222 
ADCP,ioos:station:wmo:42376:1,2012-01-04T12:00:00Z,29.1080,-87.9440,12.7,11111222 
ADCP,ioos:station:wmo:42376:1,2012-01-04T12:20:00Z,29.1080,-87.9440,12.7,11111222 
ADCP,ioos:station:wmo:42376:1,2012-01-04T12:40:00Z,29.1080,-87.9440,12.7,11111222 
ADCP,ioos:station:wmo:42376:1,2012-01-04T13:00:00Z,29.1080,-87.9440,13.1,11111222 
ADCP,ioos:station:wmo:42376:1,2012-01-04T13:20:00Z,29.1080,-87.9440,13.1,11111222 
ADCP,ioos:station:wmo:42376:1,2012-01-04T13:40:00Z,29.1080,-87.9440,13.6,11111222 
ADCP,ioos:station:wmo:42376:1,2012-01-04T14:00:00Z,29.1080,-87.9440,14.0,11111222 
ADCP,ioos:station:wmo:42376:1,2012-01-04T14:20:00Z,29.1080,-87.9440,14.0,11111222 
ADCP,ioos:station:wmo:42376:1,2012-01-04T15:00:00Z,29.1080,-87.9440,14.3,11111222 
ADCP,ioos:station:wmo:42376:1,2012-01-04T15:20:00Z,29.1080,-87.9440,14.3,11111222 
ADCP,ioos:station:wmo:42376:1,2012-01-04T16:00:00Z,29.1080,-87.9440,14.7,11111222 
ADCP,ioos:station:wmo:42376:1,2012-01-04T16:20:00Z,29.1080,-87.9440,14.7,11111222 
ADCP,ioos:station:wmo:42376:1,2012-01-04T17:00:00Z,29.1080,-87.9440,14.2,11111222 
ADCP,ioos:station:wmo:42376:1,2012-01-04T17:20:00Z,29.1080,-87.9440,14.2,11111222 
ADCP,ioos:station:wmo:42376:1,2012-01-04T17:40:00Z,29.1080,-87.9440,14.3,11111222 
ADCP,ioos:station:wmo:42376:1,2012-01-04T18:00:00Z,29.1080,-87.9440,14.4,11111222 
ADCP,ioos:station:wmo:42376:1,2012-01-04T18:20:00Z,29.1080,-87.9440,14.4,11111222 
ADCP,ioos:station:wmo:42376:1,2012-01-04T19:00:00Z,29.1080,-87.9440,14.6,11111222 
ADCP,ioos:station:wmo:42376:1,2012-01-04T19:20:00Z,29.1080,-87.9440,14.6,11111222 
ADCP,ioos:station:wmo:42376:1,2012-01-04T20:00:00Z,29.1080,-87.9440,15.0,11111222 
ADCP,ioos:station:wmo:42376:1,2012-01-04T20:40:00Z,29.1080,-87.9440,15.3,11111222 
ADCP,ioos:station:wmo:42376:1,2012-01-04T21:00:00Z,29.1080,-87.9440,15.4,11111222 
ADCP,ioos:station:wmo:42376:1,2012-01-04T21:20:00Z,29.1080,-87.9440,15.4,11111222 
ADCP,ioos:station:wmo:42376:1,2012-01-04T22:00:00Z,29.1080,-87.9440,15.5,11111222 
ADCP,ioos:station:wmo:42376:1,2012-01-04T23:00:00Z,29.1080,-87.9440,15.2,11111222 
ADCP,ioos:station:wmo:42376:1,2012-01-04T23:20:00Z,29.1080,-87.9440,15.2,11111222 
ADCP,ioos:station:wmo:42376:1,2012-01-05T00:00:00Z,29.1080,-87.9440,15.0,11111222 
ADCP,ioos:station:wmo:42376:1,2012-01-05T00:20:00Z,29.1080,-87.9440,15.0,11111222 
ADCP,ioos:station:wmo:42376:1,2012-01-05T01:00:00Z,29.1080,-87.9440,15.1,11111222 
ADCP,ioos:station:wmo:42376:1,2012-01-05T01:20:00Z,29.1080,-87.9440,15.1,11111222 
ADCP,ioos:station:wmo:42376:1,2012-01-05T02:00:00Z,29.1080,-87.9440,15.4,11111222 
ADCP,ioos:station:wmo:42376:1,2012-01-05T02:20:00Z,29.1080,-87.9440,15.4,11111222 
ADCP,ioos:station:wmo:42376:1,2012-01-05T02:40:00Z,29.1080,-87.9440,15.8,11111222 
ADCP,ioos:station:wmo:42376:1,2012-01-05T03:00:00Z,29.1080,-87.9440,16.1,11111222 
ADCP,ioos:station:wmo:42376:1,2012-01-05T04:00:00Z,29.1080,-87.9440,16.5,11111222 
ADCP,ioos:station:wmo:42376:1,2012-01-05T04:20:00Z,29.1080,-87.9440,16.5,11111222 
ADCP,ioos:station:wmo:42376:1,2012-01-05T04:40:00Z,29.1080,-87.9440,16.5,11111222 
ADCP,ioos:station:wmo:42376:1,2012-01-05T05:00:00Z,29.1080,-87.9440,16.9,11111222 
ADCP,ioos:station:wmo:42376:1,2012-01-05T05:20:00Z,29.1080,-87.9440,16.9,11111222 
ADCP,ioos:station:wmo:42376:1,2012-01-05T06:20:00Z,29.1080,-87.9440,17.3,11111222 
ADCP,ioos:station:wmo:42376:1,2012-01-05T07:00:00Z,29.1080,-87.9440,17.6,11111222 
ADCP,ioos:station:wmo:42376:1,2012-01-05T07:20:00Z,29.1080,-87.9440,17.6,11111222 
ADCP,ioos:station:wmo:42376:1,2012-01-05T08:00:00Z,29.1080,-87.9440,18.1,11111222 
ADCP,ioos:station:wmo:42376:1,2012-01-05T08:20:00Z,29.1080,-87.9440,18.1,11111222 
ADCP,ioos:station:wmo:42376:1,2012-01-05T08:40:00Z,29.1080,-87.9440,18.2,11111222 
ADCP,ioos:station:wmo:42376:1,2012-01-05T09:00:00Z,29.1080,-87.9440,18.3,11111222 
ADCP,ioos:station:wmo:42376:1,2012-01-05T09:20:00Z,29.1080,-87.9440,18.3,11111222 
ADCP,ioos:station:wmo:42376:1,2012-01-05T09:40:00Z,29.1080,-87.9440,18.3,11111222 
ADCP,ioos:station:wmo:42376:1,2012-01-05T10:00:00Z,29.1080,-87.9440,19.0,11111222 
ADCP,ioos:station:wmo:42376:1,2012-01-05T10:20:00Z,29.1080,-87.9440,19.0,11111222 
ADCP,ioos:station:wmo:42376:1,2012-01-05T11:00:00Z,29.1080,-87.9440,19.7,11111222 
ADCP,ioos:station:wmo:42376:1,2012-01-05T12:00:00Z,29.1080,-87.9440,19.8,11111222 
ADCP,ioos:station:wmo:42376:1,2012-01-05T12:20:00Z,29.1080,-87.9440,19.8,11111222 
ADCP,ioos:station:wmo:42376:1,2012-01-05T13:00:00Z,29.1080,-87.9440,19.9,11111222 
ADCP,ioos:station:wmo:42376:1,2012-01-05T13:40:00Z,29.1080,-87.9440,20.0,11111222 
ADCP,ioos:station:wmo:42376:1,2012-01-05T14:00:00Z,29.1080,-87.9440,20.1,11111222 
ADCP,ioos:station:wmo:42376:1,2012-01-05T14:20:00Z,29.1080,-87.9440,20.1,11111222 
ADCP,ioos:station:wmo:42376:1,2012-01-05T14:40:00Z,29.1080,-87.9440,20.1,11111222 
ADCP,ioos:station:wmo:42376:1,2012-01-05T15:00:00Z,29.1080,-87.9440,20.2,11111222 
ADCP,ioos:station:wmo:42376:1,2012-01-05T15:20:00Z,29.1080,-87.9440,20.2,11111222 
ADCP,ioos:station:wmo:42376:1,2012-01-05T15:40:00Z,29.1080,-87.9440,20.3,11111222 
ADCP,ioos:station:wmo:42376:1,2012-01-05T16:00:00Z,29.1080,-87.9440,20.3,11111222 
ADCP,ioos:station:wmo:42376:1,2012-01-05T16:20:00Z,29.1080,-87.9440,20.3,11111222 
ADCP,ioos:station:wmo:42376:1,2012-01-05T16:40:00Z,29.1080,-87.9440,20.2,11111222 
ADCP,ioos:station:wmo:42376:1,2012-01-05T17:00:00Z,29.1080,-87.9440,20.1,11111222 
ADCP,ioos:station:wmo:42376:1,2012-01-05T17:20:00Z,29.1080,-87.9440,20.1,11111222 
ADCP,ioos:station:wmo:42376:1,2012-01-05T17:40:00Z,29.1080,-87.9440,20.3,11111222 
ADCP,ioos:station:wmo:42376:1,2012-01-05T18:00:00Z,29.1080,-87.9440,20.6,11111222 
ADCP,ioos:station:wmo:42376:1,2012-01-05T18:20:00Z,29.1080,-87.9440,20.6,11111222 
ADCP,ioos:station:wmo:42376:1,2012-01-05T18:40:00Z,29.1080,-87.9440,20.5,11111222 
ADCP,ioos:station:wmo:42376:1,2012-01-05T19:00:00Z,29.1080,-87.9440,20.4,11111222 
ADCP,ioos:station:wmo:42376:1,2012-01-05T19:20:00Z,29.1080,-87.9440,20.4,11111222 
ADCP,ioos:station:wmo:42376:1,2012-01-05T19:40:00Z,29.1080,-87.9440,20.5,11111222 
ADCP,ioos:station:wmo:42376:1,2012-01-05T20:00:00Z,29.1080,-87.9440,20.5,11111222 
ADCP,ioos:station:wmo:42376:1,2012-01-05T20:20:00Z,29.1080,-87.9440,20.5,11111222 
ADCP,ioos:station:wmo:42376:1,2012-01-05T20:40:00Z,29.1080,-87.9440,20.3,11111222 
ADCP,ioos:station:wmo:42376:1,2012-01-05T21:00:00Z,29.1080,-87.9440,20.1,11111222 
ADCP,ioos:station:wmo:42376:1,2012-01-05T21:20:00Z,29.1080,-87.9440,20.1,11111222 
ADCP,ioos:station:wmo:42376:1,2012-01-05T21:40:00Z,29.1080,-87.9440,20.0,11111222 
ADCP,ioos:station:wmo:42376:1,2012-01-05T22:00:00Z,29.1080,-87.9440,20.0,11111222 
ADCP,ioos:station:wmo:42376:1,2012-01-05T22:40:00Z,29.1080,-87.9440,19.9,11111222 
ADCP,ioos:station:wmo:42376:1,2012-01-05T23:00:00Z,29.1080,-87.9440,19.8,11111222 
ADCP,ioos:station:wmo:42376:1,2012-01-05T23:20:00Z,29.1080,-87.9440,19.8,11111222 